Regional Weather Roundup
Issued by NWS

Home | Current Version | Previous Version | Text Only | Print | Product List | Glossary Off
Versions: 1 2 3 4 5 6 7 8 9 10 11 12 13 14 15 16 17 18 19 20 21 22 23 24 25 26 27 28 29 30 31 32 33 34 35 36 37 38 39 40 41 42 43 44 45 46 47 48 49 50

248
ASUS43 KLSX 010707
RWRMO

WEATHER SUMMARY FOR MISSOURI
NATIONAL WEATHER SERVICE SPRINGFIELD MO
200 AM CDT SUN MAY 01 2016

NOTE: "FAIR" INDICATES FEW OR NO CLOUDS BELOW 12,000 FEET WITH NO
       SIGNIFICANT WEATHER AND/OR OBSTRUCTIONS TO VISIBILITY.
       CURRENT SKY AND/OR WEATHER CONDITIONS ARE NOT AVAILABLE FOR
       CHILLICOTHE AND FARMINGTON.

MOZ001>031-035>038-043-044-053-054-010800-
...NORTHERN AND WESTERN MISSOURI...

CITY           SKY/WX    TMP DP  RH WIND       PRES   REMARKS
KANSAS CTY INT MOCLDY    52  46  80 W5        29.88S
KANSAS C DTWN  MOCLDY    56  46  69 W7        29.88R
LEE`S SUMMIT   CLOUDY    55  47  74 W6        29.89R
ST JOSEPH      CLOUDY    55  49  80 CALM      29.88S
CHILLICOTHE      N/A     57  54  89 CALM      29.88S
KIRKSVILLE     FOG       51  50  96 N6        29.88S VSB 1/2

$$
MOZ066>068-077>081-088>096-101>105-010800-
...SOUTHWEST MISSOURI...

CITY           SKY/WX    TMP DP  RH WIND       PRES   REMARKS
SPRINGFIELD    CLEAR     54  49  83 W5        29.89S
JOPLIN         CLEAR     51  47  86 W6        29.93S

$$
MOZ032>034-039>042-045>050-055>058-069>072-010800-
...CENTRAL MISSOURI...

CITY           SKY/WX    TMP DP  RH WIND       PRES   REMARKS
COLUMBIA       CLOUDY    57  53  86 W5        29.86R
JEFFERSON CITY PTCLDY    55  53  93 CALM      29.86R
ROLLA          CLEAR     56  54  93 S8        29.84F
SEDALIA        PTCLDY    57  51  80 W7        29.88S
WHITEMAN AFB   CLEAR     53  52  99 W6        29.86S
WARRENSBURG    CLOUDY    55  46  71 SW5       29.88S
OSAGE BEACH    PTCLDY    52  45  76 CALM      29.87S

$$
MOZ051-052-059>065-010800-
...EAST CENTRAL MISSOURI...

CITY           SKY/WX    TMP DP  RH WIND       PRES   REMARKS
ST LOUIS INTL  CLOUDY    62  57  83 S9        29.85R
SPIRIT OF STL  CLEAR     59  58  96 CALM      29.85R
ST CHARLES     CLEAR     57  56  96 CALM      29.84R

$$
MOZ072>076-082>087-097>100-106>115-010800-
...SOUTH CENTRAL AND SOUTHEAST MISSOURI...

CITY           SKY/WX    TMP DP  RH WIND       PRES   REMARKS
CAPE GIRARDEAU CLOUDY    63  61  93 NE3       29.86R
FARMINGTON     LGT RAIN  60  57  89 CALM      29.86F
POPLAR BLUFF   CLOUDY    65  61  87 NW7       29.84S
WEST PLAINS    FOG       57  55  93 CALM      29.88S VSB 1/4

$$



USA.gov is the U.S. government's official web portal to all federal, state and local government web resources and services.